Location: Ferchesar
(52.6477°N, 12.4298°E)
Time: 17:30:59
(UTC+01:00)

Explorer 7 - Pass Details

Date: 14 December 2021
Orbit: 483 x 674 km, 50.3° (Epoch: 23 January)

Event Time Altitude Azimuth Distance (km) Brightness Sun altitude
Rises 03:33:10 0° 245° (WSW) 2,930 - -41.0°
Reaches altitude 10° 03:35:35 10° 240° (WSW) 1,995 - -40.6°
Maximum altitude 03:40:01 52° 165° (SSE) 750 - -40.0°
Drops below altitude 10° 03:44:13 10° 89° (E) 1,881 - -39.4°
Exits shadow 03:44:28 - 88° (E) 1,981 10.3 -39.3°
Sets 03:46:26 0° 84° (E) 2,746 11.3 -39.1°
